Tracking 28052 objects as of 25-Sep-2023
HD Live streaming from Space Station
objects crossing your sky now

STARLINK-1700

Track STARLINK-1700 now!
10-day predictions
STARLINK-1700 is classified as:


NORAD ID: 46549
Int'l Code: 2020-070T
Perigee: 553.3 km
Apogee: 555.3 km
Inclination: 53.1 °
Period: 95.6 minutes
Semi major axis: 6925 km
RCS: Unknown
Launch date: October 6, 2020
Source: United States (US)
Launch site: AIR FORCE EASTERN TEST RANGE (AFETR)
Your satellite tracking list
Your tracking list is empty




NASA's NSSDC Master Catalog

Two Line Element Set (TLE):
1 46549U 20070T   23267.38605563  .00005285  00000-0  37323-3 0  9994
2 46549  53.0538 244.7708 0001461  92.6418 267.4738 15.06420264164253
Source of the keplerian elements: AFSPC